User: anonymous
Location: Cutler
(25.6150°N, 80.3110°W)
Time: 17:38:49
(UTC-04:00)
Language:

Cosmos 2360 Rocket - Orbit

View from above orbital plane
View from above orbital plane
View from above satellite
View from above satellite

Ground track
Ground track

The orbit data is extracted from the following two-line orbital elements,

1 25407U 98045B   14205.10462375 -.00000165  00000-0 -59866-4 0  5161
2 25407 071.0120 106.9046 0007591 004.7020 094.1754 14.15663931826298
Epoch (UTC): 24 July 2014 02:30:39
Eccentricity: 0.0007591
inclination: 71.0120°
perigee height: 834 km
apogee height: 845 km
right ascension of ascending node: 106.9046°
argument of perigee: 4.7020°
revolutions per day: 14.15663931
mean anomaly at epoch: 94.1754°
orbit number at epoch: 82629

The dashed part of the orbit path shows where the satellite is in the earth's shadow,  

DLR